MMS 3

Last updated on Wed Jul 02 2025 00:02:38 GMT+0000 (Coordinated Universal Time)

1 40484U 15011C 25182.58335648 -.00000912 00000+0 00000+0 0 9999 2 40484 65.2590 354.8524 8691719 159.8739 122.8118 0.28480544 1383
UTC large
Height (km)
Speed (km/s)
/
Latitude / Longitude
Inclination (degrees)
Orbital Period (minutes)
Azimuth
Elevation
Range (km)
Doppler Factor

Next 0 passes for location: London (51.5072 / 0.1276)

Sorry there are no passes over London.